Погода Сумы

Погода Сумы : погода сейчас, прогноз погоды и архив. Всё, что Вы хотите узнать о погоде Сумы!

Хотите узнать прогноз погоды Сумы? Тогда Вам сюда: Погода Сумы

Поиск расширенной информации на нашем сайте:

Полезная информация:

Другие новости

Новости СМИ2

Главная страница сайта

Новости сайта

03.07.2017

Напоминаем, что на нашем специализированном сайте Метеоцентр.Азия вы можете получить высокодетализированные автоматические прогнозы погоды по пунктам России, СНГ и мира в авиационном формате (включающие направление и скорость ветра, видимость, явления погоды, количество и форму облачности, нижнюю и верхнюю границу облачности).

Рекомендуем:

Погода Сумы - сегодня

Время (UTC), дата Ветер
(°,м/с) 
Видим.   Явления Облачность Т
(°С)
Тd
(°С)
f(%) Тe
(°С)
Pmin
(гПа)
dP
(гПа)
Po
(мм)
O2
(г/м3)
Тmin Tmax R s Состояние
почвы
09 15.09.19 310 (СЗ) 10 км    8/3 600 м верхняя 
[Cu hum|Ci fib]
+17 +4 42 +17  1022.4  -0.7  751  284           
12 15.09.19 270 (З) 10 км    8/5 600 м верхняя 
[Cu hum|Ci fib]
+19.7 +0.8 28 +20  1020.6  -1.6  749  282           
15 15.09.19 260 (З) 10 км    8/0 верхняя 
[Ci fib]
+17.9 +2.4 35 +18  1018.8  -1.9  748  282           
18 15.09.19 230 (ЮЗ) 10 км    4/0 верхняя 
[Ci fib]
+14.3 +2.3 44 +14  1017.8  -1.2  747  286    +20.2       
21 15.09.19 200 (Ю) 10 км    4/0 верхняя 
[Ci fib]
+11.5 +3.1 56 +11  1016.1  -1.9  746  288           
00 16.09.19 200 (Ю) 10 км    6/0 верхняя 
[Ci fib]
+11.6 +3.2 56 +11  1014.2  -1.9  744  287           
03 16.09.19 220 (ЮЗ) 10 км    8/0 верхняя 
[Ci fib]
+12.1 +3.9 57 +11  1011.2  -2.8  742  286           
06 16.09.19 250 (З) 10 км    3/0 верхняя 
[Ci fib]
+14.8 +3.4 46 +14  1010.2  0.8  742  283  +10.7         
09 16.09.19 260 (З) 10 км    8/0 средняя, верхняя 
[Ac trans|Ci fib]
+19.9 +6.4 41 +21  1008.7  -1.1  741  277           
12 16.09.19 270 (З) 10 км    8/0 средняя, верхняя 
[Ac trans|Ci fib]
+21.6 +7.6 40 +22  1007.6  -1  740  275           
15 16.09.19 280 (З) 10 км    6/0 средняя, верхняя 
[Ac trans|Ci fib]
+19.8 +6.6 42 +20  1006.9  -0.8  739  277           
18 16.09.19 270 (З) 10 км    4/0 верхняя 
[Ci fib]
+14.7 +5.8 55 +15  1007.6  0.3  740  282    +22.1       
21 16.09.19 260 (З) 10 км    4/0 верхняя 
[Ci fib]
+13 +6.1 63 +13  1007.2  -0.5  739  283           
00 17.09.19 280 (З) 10 км    8/0 средняя, верхняя 
[Ac trans|Ci fib]
+12.2 +6.3 67 +13  1006.7  -0.5  739  284           
03 17.09.19 270 (З) 10 км    6/0 средняя, верхняя 
[Ac trans|Ci fib]
+9.2 +4.7 73 +9  1007.2  0.2  739  287           
06 17.09.19 290 (З) 10 км    6/0 средняя, верхняя 
[Ac trans|Ci fib]
+11.2 +5.1 66 +10  1007.3  0.3  739  285  +8.9         
09 17.09.19 270 (З) 10 км    8/8 1000 м 
[Sc]
+17.1 +2.1 36 +17  1006.2  -0.7  739  280           
12 17.09.19 280 (З) 10 км    6/6 1000 м 
[Sc]
+18.2 +2 34 +18  1005.4  -0.7  738  279           
15 17.09.19 300 (СЗ) 10 км    4/0 средняя 
[Ac trans]
+16.6 +2 37 +16  1005.3  -0.2  738  280           
18 17.09.19 260 (З) 10 км    ясно 
+11.3 +1.7 52 +12  1006.3  0.6  738  285    +18.8       
21 17.09.19 230 (ЮЗ) 10 км    3/0 верхняя 
[Ci fib]
+7.6 +0.6 61 +8  1006  -0.6  738  289           
00 18.09.19 200 (Ю) 10 км    6/0 средняя 
[Ac trans]
+8.2 +3.1 70 +8  1003.9  -2  737  288           
03 18.09.19 220 (ЮЗ) 10 км    10/0 средняя 
[Ac und]
+10.2 +5.9 75 +9  1001.7  -2  735  284           
06 18.09.19 220 (ЮЗ) 10 км    8/3 1000 м средняя 
[Sc|Ac trans]
+11.1 +3.7 60 +10  1001  -0.6  735  284  +7.1         
09 18.09.19 270 (З) 10 км  в посл. час ливневой дождь  8/5 600 м кучево-дожд., средняя 
[Cb calv|Ac trans]
+10.1 +8.3 89 +9  1001.2  0.1  735  284           
Время (UTC), дата Ветер
(°,м/с) 
Видим.   Явления Облачность Т
(°С)
Тd
(°С)
f(%) Тe
(°С)
Pmin
(гПа)
dP
(гПа)
Po
(мм)
O2
(г/м3)
Тmin Tmax R s Состояние
почвы

Для получения пояснительной информации подведите курсор к названию столбца.

ПОГОДА Сумы - архив

Всё, что Вы хотите узнать о погоде Сумы - удобно и подробно!

Выберите нужную дату (начиная с 1 января 2018* года) и нажмите кнопку "Найти".
Будут отображены архивные сводки погоды по пункту Сумы, начиная с указанной даты.


Отображать данные в формате CSV (для использования в таблицах Excel)


Внимание! Наш архив погоды предназначен исключительно для личного некоммерческого использования в познавательных целях. Если Вам необходимы официальные справки о состоянии погоды (для производственных, юридических, коммерческих и т.п. целей), обращайтесь в органы Росгидромета.

*Примечание: данная дата относится к архиву по метеостанциям СССР (Россия, СНГ, Балтия).
Архив по метеостанциям Зарубежной Европы и Азии (кроме Китая) хранится 10 дней, по другим регионам земного шара (Китай, Африка, Америка, Австралия, Океания) - 1 день.

Сумы - район местоположения метеостанции


Название, широта, долгота, высота метеостанции:
Сумы 50.9°ш. 34.7°д. 181 м над ур. моря [Украина]

Дополнительная информация

В oтличие oт бoльшинства пoгoдных сайтoв мы публикуем пoдрoбную метеoинфoрмацию в детальнoм прoфессиoнальнoм фoрмате.

Характеристики температуры и влажнoсти вoздуха измеряются на высoте 2 м в тени вдали oт зданий и деревьев.
Скoрoсть ветра измеряется на высoте 10 м (на урoвне рoста челoвека скoрoсть ветра ниже в 1.5-2 раза). Если метеoстанция нахoдится в гoрoде или в лесу, тo скoрoсть ветра занижена на 2-4 м/с пo сравнению с oткрытым местoм. Скoрoсть ветра над акватoриями крупных рек и oзёр, а также на вершинах хoлмoв на 2-5 м/с выше, чем в oбычных услoвиях.
Атмoсфернoе давление в разных тoчках местнoсти мoжет значительнo oтличаться oт давления на метеoстанции, в зависимoсти oт услoвий рельефа (при пoдъёме на 10 м давление пoнижается примернo на 1 мм рт.ст.).